Weather reports worldwide

Advertisment
Ibiza/Es Codola, Spain (8373): temperature & dewpoint: 14.10.2019 22:00:00 - 20.10.2019 22:00:00 (CEST)Ibiza/Es Codola, Spain (8373): wind speed: 14.10.2019 22:00:00 - 20.10.2019 22:00:00 (CEST)Ibiza/Es Codola, Spain (8373): wind direction: 14.10.2019 22:00:00 - 20.10.2019 22:00:00 (CEST)Ibiza/Es Codola, Spain (8373): reduced air pressure: 14.10.2019 22:00:00 - 20.10.2019 22:00:00 (CEST)Ibiza/Es Codola, Spain (8373): visibility: 14.10.2019 22:00:00 - 20.10.2019 22:00:00 (CEST)
Date & Time tt [°C] td [°C] ff [km/h] ff [kn] dd ppp [hPa] vv [km]
20.10.2019 22:00:00 17,7 15,5 5 3 WSW 1014,3 10
20.10.2019 21:00:00 19,0 14,2 16 9 SW 1013,0 10
20.10.2019 20:00:00 19,4 15,4 4 2 - 1012,9 10
20.10.2019 19:00:00 20,7 13,9 4 2 - 1011,8 10
20.10.2019 18:00:00 21,2 13,4 0 0 N 1011,2 10
20.10.2019 17:00:00 21,7 13,4 13 7 NW 1011,0 10
20.10.2019 16:00:00 22,6 13,9 18 10 WSW 1010,8 10
20.10.2019 15:00:00 23,2 14,7 15 8 WSW 1010,4 10
20.10.2019 14:00:00 23,8 15,8 15 8 WSW 1010,1 15
20.10.2019 13:00:00 23,7 16,3 13 7 W 1010,3 10
20.10.2019 12:00:00 22,7 16,4 22 12 WSW 1010,0 10
20.10.2019 11:00:00 23,0 17,7 31 17 SW 1009,2 10
20.10.2019 10:00:00 23,1 18,0 31 17 SSW 1009,0 10
20.10.2019 09:00:00 22,9 18,0 29 16 SSW 1008,0 10
20.10.2019 08:00:00 22,7 17,6 26 14 SW 1007,6 10
20.10.2019 07:00:00 22,5 18,1 26 14 SW 1007,1 10
20.10.2019 06:00:00 22,2 18,0 24 13 SW 1006,8 10
20.10.2019 05:00:00 22,4 18,7 24 13 SW 1006,7 20
20.10.2019 04:00:00 22,2 18,5 26 14 SSW 1007,0 10
20.10.2019 03:00:00 22,4 18,2 29 16 SSW 1007,7 10
20.10.2019 02:00:00 22,2 17,2 29 16 S 1007,8 20
20.10.2019 01:00:00 22,2 17,2 24 13 S 1008,0 10
20.10.2019 00:00:00 22,2 17,1 21 11 S 1008,4 10
19.10.2019 23:00:00 22,2 18,2 21 11 S 1008,5 10
19.10.2019 22:00:00 22,2 17,9 18 10 S 1008,5 10
19.10.2019 21:00:00 22,2 18,7 18 10 SSW 1008,9 10
19.10.2019 20:00:00 22,4 18,4 21 11 SSW 1009,0 10
19.10.2019 19:00:00 22,7 18,5 16 9 SSW 1009,0 10
19.10.2019 18:00:00 23,1 17,1 18 10 SSW 1009,4 10
19.10.2019 17:00:00 23,7 17,9 21 11 SW 1009,6 10
19.10.2019 16:00:00 23,7 17,0 18 10 SW 1009,8 10
19.10.2019 15:00:00 23,8 17,3 18 10 SW 1010,2 10
19.10.2019 14:00:00 24,4 16,6 15 8 SW 1011,1 10
19.10.2019 13:00:00 23,9 16,5 16 9 SW 1011,9 10
19.10.2019 12:00:00 23,9 16,6 18 10 SW 1012,1 10
19.10.2019 11:00:00 23,2 17,0 18 10 SW 1012,3 14
19.10.2019 10:00:00 22,4 16,9 21 11 SW 1012,4 10
19.10.2019 09:00:00 21,5 16,6 15 8 SW 1012,0 10
19.10.2019 08:00:00 21,2 16,4 21 11 SW 1011,7 10
19.10.2019 07:00:00 21,0 16,9 16 9 SW 1011,8 10
19.10.2019 06:00:00 21,2 17,4 16 9 SW 1011,8 10
19.10.2019 05:00:00 21,1 17,4 16 9 SW 1012,1 10
19.10.2019 04:00:00 21,0 17,4 16 9 SW 1012,6 10
19.10.2019 03:00:00 21,1 17,2 15 8 SW 1013,3 10
19.10.2019 02:00:00 21,2 17,6 15 8 SW 1013,7 10
19.10.2019 01:00:00 21,5 18,1 15 8 SW 1014,0 10
19.10.2019 00:00:00 21,6 18,6 13 7 SW 1014,3 10
18.10.2019 23:00:00 21,6 18,4 13 7 SW 1014,7 18
18.10.2019 22:00:00 22,1 18,7 16 9 SW 1014,6 10
18.10.2019 21:00:00 22,0 18,4 15 8 SW 1014,8 10
18.10.2019 20:00:00 22,4 18,0 16 9 SW 1014,9 25
18.10.2019 19:00:00 22,7 18,0 18 10 SW 1014,7 10
18.10.2019 18:00:00 23,2 16,9 22 12 SW 1014,9 10
18.10.2019 17:00:00 24,2 16,8 18 10 SSW 1015,2 10
18.10.2019 16:00:00 24,6 17,3 18 10 SSW 1015,5 10
18.10.2019 15:00:00 25,0 17,6 18 10 SSW 1015,8 10
18.10.2019 14:00:00 24,7 17,2 21 11 SW 1016,5 25
18.10.2019 13:00:00 24,9 17,1 18 10 WSW 1017,2 10
18.10.2019 12:00:00 23,9 16,4 16 9 WSW 1017,5 10
18.10.2019 11:00:00 23,7 16,8 16 9 SW 1017,4 25
18.10.2019 10:00:00 23,4 16,1 5 3 SW 1017,0 10
18.10.2019 09:00:00 18,1 15,2 0 0 N 1016,8 10
18.10.2019 08:00:00 16,9 14,2 4 2 WSW 1016,3 30
18.10.2019 07:00:00 15,4 13,7 5 3 NNE 1016,2 10
18.10.2019 06:00:00 16,6 14,4 0 0 N 1016,2 10
18.10.2019 05:00:00 17,7 15,1 5 3 - 1016,3 10
18.10.2019 04:00:00 17,4 15,6 8 4 N 1016,6 10
18.10.2019 03:00:00 17,9 15,5 4 2 - 1017,2 10
18.10.2019 02:00:00 20,1 16,4 11 6 WSW 1017,3 18
18.10.2019 01:00:00 20,6 15,9 11 6 SW 1017,6 10
18.10.2019 00:00:00 21,0 14,6 13 7 SW 1017,8 10
17.10.2019 23:00:00 21,1 14,5 13 7 SW 1017,9 18
17.10.2019 22:00:00 20,7 14,2 8 4 SW 1017,7 10
17.10.2019 21:00:00 21,1 15,2 9 5 SW 1017,2 10
17.10.2019 20:00:00 21,1 14,7 11 6 SW 1017,0 10
17.10.2019 19:00:00 21,4 14,9 11 6 SW 1016,5 10
17.10.2019 18:00:00 23,1 14,4 15 8 SW 1016,3 10
17.10.2019 17:00:00 23,6 12,8 16 9 SSW 1016,6 10
17.10.2019 16:00:00 24,4 12,1 18 10 SW 1017,0 10
17.10.2019 15:00:00 24,2 11,9 21 11 SW 1017,2 10
17.10.2019 14:00:00 24,2 13,7 24 13 WSW 1017,8 75
17.10.2019 13:00:00 23,9 14,6 24 13 SW 1018,3 10
17.10.2019 12:00:00 23,7 13,9 22 12 SW 1018,3 10
17.10.2019 11:00:00 23,1 15,4 18 10 SW 1018,2 10
17.10.2019 10:00:00 22,0 14,8 16 9 SW 1017,9 10
17.10.2019 09:00:00 21,0 13,6 15 8 SW 1017,2 30
17.10.2019 08:00:00 20,1 14,2 16 9 SW 1016,9 10
17.10.2019 07:00:00 20,1 13,4 15 8 SW 1016,7 10
17.10.2019 06:00:00 20,2 12,9 16 9 SW 1016,8 10
17.10.2019 05:00:00 20,0 13,6 16 9 SW 1016,9 10
17.10.2019 04:00:00 20,2 13,7 18 10 SW 1017,2 10
17.10.2019 03:00:00 20,2 13,2 21 11 SW 1017,4 10
17.10.2019 02:00:00 20,1 13,0 16 9 SW 1017,7 18
17.10.2019 01:00:00 20,2 12,3 15 8 SSW 1018,2 10
17.10.2019 00:00:00 20,2 13,6 15 8 SSW 1018,6 10
16.10.2019 23:00:00 20,2 13,2 13 7 SSW 1018,2 25
16.10.2019 22:00:00 20,1 12,9 13 7 SSW 1017,8 10
16.10.2019 21:00:00 20,4 12,9 13 7 SSW 1017,6 10
16.10.2019 20:00:00 20,6 13,1 15 8 SSW 1017,7 20
16.10.2019 19:00:00 21,0 13,1 15 8 SW 1017,5 10
16.10.2019 18:00:00 22,1 11,0 15 8 SW 1017,9 10
16.10.2019 17:00:00 23,0 8,7 16 9 SW 1018,2 30
16.10.2019 16:00:00 23,3 7,4 15 8 SW 1018,6 10
16.10.2019 15:00:00 23,2 6,2 18 10 WSW 1019,2 10
16.10.2019 14:00:00 23,5 6,2 21 11 SW 1019,7 30
16.10.2019 13:00:00 23,1 7,7 18 10 WSW 1020,2 10
16.10.2019 12:00:00 22,8 8,0 21 11 SW 1020,5 10
16.10.2019 11:00:00 22,2 8,2 21 11 SW 1020,7 10
16.10.2019 10:00:00 21,6 11,3 15 8 SW 1020,4 10
16.10.2019 09:00:00 19,7 11,7 15 8 SW 1020,0 10
16.10.2019 08:00:00 14,4 10,4 4 2 - 1019,7 10
16.10.2019 07:00:00 14,2 10,1 4 2 - 1019,8 10
16.10.2019 06:00:00 12,8 9,8 5 3 N 1019,8 10
16.10.2019 05:00:00 12,3 8,7 5 3 NNE 1020,1 12
16.10.2019 04:00:00 12,0 8,5 4 2 - 1020,3 10
16.10.2019 03:00:00 11,7 8,0 4 2 NNW 1020,6 10
16.10.2019 02:00:00 11,8 7,4 4 2 NNW 1020,8 14
16.10.2019 01:00:00 10,8 4,7 4 2 - 1020,9 10
16.10.2019 00:00:00 12,8 3,2 4 2 NNW 1020,9 10
15.10.2019 23:00:00 12,3 3,4 0 0 N 1021,0 14
15.10.2019 22:00:00 13,5 4,4 9 5 N 1020,7 10
15.10.2019 21:00:00 15,2 6,5 8 4 NW 1020,1 10
15.10.2019 20:00:00 16,5 7,0 9 5 NNW 1020,0 10
15.10.2019 19:00:00 18,9 5,7 9 5 W 1019,5 10
15.10.2019 18:00:00 20,5 6,0 15 8 WNW 1018,9 10
15.10.2019 17:00:00 21,1 7,3 13 7 WNW 1018,7 30
15.10.2019 16:00:00 21,2 6,9 15 8 NW 1018,7 10
15.10.2019 15:00:00 21,4 6,9 16 9 NW 1018,7 10
15.10.2019 14:00:00 20,9 7,4 16 9 NNW 1019,0 30
15.10.2019 13:00:00 20,7 8,0 18 10 WNW 1019,2 10
15.10.2019 12:00:00 20,2 8,4 24 13 W 1019,0 10
15.10.2019 11:00:00 19,5 7,7 31 17 WNW 1018,6 25
15.10.2019 10:00:00 19,2 8,0 22 12 WNW 1018,0 10
15.10.2019 09:00:00 18,2 7,4 22 12 WNW 1017,1 10
15.10.2019 08:00:00 18,0 6,9 22 12 WNW 1016,3 30
15.10.2019 07:00:00 18,5 6,8 24 13 WNW 1015,7 10
15.10.2019 06:00:00 19,0 7,2 34 18 W 1015,1 10
15.10.2019 05:00:00 19,2 9,1 34 18 WNW 1014,4 10
15.10.2019 04:00:00 20,5 8,5 24 13 W 1014,0 10
15.10.2019 03:00:00 21,1 10,9 34 18 W 1013,7 10
15.10.2019 02:00:00 22,4 11,6 29 16 W 1013,2 10
15.10.2019 01:00:00 22,2 18,6 21 11 WSW 1012,8 10
15.10.2019 00:00:00 22,4 18,3 26 14 WSW 1012,9 10
14.10.2019 23:00:00 22,9 19,2 15 8 SSW 1013,3 15
14.10.2019 22:00:00 21,0 19,5 0 0 N 1012,8 10

tt = temperature
td = dewpoint
ff = wind speed
dd = wind direction
ppp = reduced air pressure
vv = visibility

Next stations